[[{"header":{"parameterUnit":"m.s-1","parameterCategory":1,"la1":30.2991,"la2":30.254,"lo1":-89.0895,"lo2":-89.0444,"dy":0.0017,"dx":0.0017,"nx":28,"ny":28,"refTime":"2023-08-24T09:00:00:Z","depth":0,"parameterNumber":2,"parameterNumberName":"U-component_of_WINDS"},"data":[0,0,0,0,0,0,0,0,0,0,0,0,0,0,0,0,0,0,0,0,0,0,0,0,0,0,0,0,0,0,0,0,0,0,0,0,0,0,0,0,0,0,0,0,0,0,0,0,0,0,0,0,0,0,0,0,0,0,-1.6401,-1.64,0,-1.637,-1.6369,-1.6369,-1.6329,-1.6328,-1.6327,-1.6327,-1.6294,-1.6294,-1.6293,0,0,0,0,0,0,0,0,0,0,0,0,0,-1.6426,-1.6426,-1.6401,-1.64,-1.64,-1.637,-1.6369,-1.6369,-1.6329,-1.6328,-1.6327,-1.6327,-1.6294,-1.6294,-1.6293,0,0,0,0,0,0,0,0,0,0,0,0,0,-1.6407,-1.6425,-1.6401,-1.6376,-1.6374,-1.637,-1.6369,-1.6369,-1.6329,-1.6328,-1.6327,-1.6326,-1.6294,-1.6294,-1.6293,-1.631,0,0,-1.6292,-1.6292,0,0,0,0,0,0,0,0,-1.6408,-1.6406,-1.638,-1.6378,-1.6375,-1.6352,-1.6366,-1.6349,-1.6329,-1.6346,-1.6327,-1.6326,-1.6314,-1.6312,-1.6308,-1.6309,-1.6307,-1.6292,-1.6292,-1.6292,-1.6292,0,0,0,0,0,0,0,-1.6409,-1.6407,-1.6388,-1.638,-1.6377,-1.6367,-1.6363,-1.6363,-1.6336,-1.6345,-1.6342,-1.6338,-1.6312,-1.6309,-1.6307,-1.6307,-1.6292,-1.6292,-1.6292,-1.6291,-1.6321,-1.6322,0,0,0,0,0,0,-1.6414,-1.6408,-1.6389,-1.6387,-1.639,-1.6367,-1.6363,-1.6361,-1.6336,-1.6331,-1.6339,-1.6337,-1.631,-1.6308,-1.6306,-1.6324,-1.6292,-1.6291,-1.6291,-1.632,-1.6321,-1.6322,0,0,0,0,0,0,-1.6415,-1.6413,-1.6391,-1.6397,-1.6394,-1.6368,-1.6365,-1.636,-1.6357,-1.6332,-1.6327,-1.634,-1.6309,-1.6306,-1.631,-1.6323,-1.6291,-1.6291,-1.6318,-1.632,-1.6321,-1.6361,0,0,0,0,0,0,-1.6416,-1.6413,-1.642,-1.6398,-1.6393,-1.6395,-1.6366,-1.636,-1.6356,-1.6352,-1.6331,-1.6327,-1.6308,-1.6311,-1.6309,-1.6321,-1.629,-1.6317,-1.6319,-1.6321,-1.6359,-1.6364,-1.6369,0,0,0,0,0,-1.6417,-1.6432,-1.642,-1.6418,-1.64,-1.6396,-1.6394,-1.6372,-1.6357,-1.6363,-1.6348,-1.6328,-1.6322,-1.6311,-1.631,-1.6322,-1.6316,-1.6319,-1.6321,-1.6357,-1.6363,-1.6369,0,0,0,0,0,0,-1.6455,-1.6428,-1.6415,-1.6423,-1.6412,-1.6389,-1.6396,-1.6379,-1.6372,-1.6368,-1.6341,-1.6337,-1.6344,-1.6333,-1.6322,-1.6337,-1.6316,-1.6318,-1.6344,-1.635,-1.6355,-1.6357,-1.629,0,0,0,0,0,-1.6465,-1.6464,-1.644,-1.6449,-1.6445,-1.6422,-1.6419,-1.6403,-1.639,-1.6385,-1.637,-1.6358,-1.6354,-1.6351,-1.6346,-1.6357,-1.6352,-1.6365,-1.637,-1.6374,-1.6376,-1.6382,-1.6388,-1.633,-1.633,-1.6329,0,0,-1.6484,-1.6469,-1.647,-1.6457,-1.6446,-1.6446,-1.6418,-1.6418,-1.6417,-1.6385,-1.6388,-1.6376,-1.6361,-1.6369,-1.6372,-1.6361,-1.6391,-1.6377,-1.6381,-1.638,-1.6385,-1.6391,-1.6395,-1.6331,-1.6331,-1.6331,0,0,-1.6519,-1.6508,-1.6515,-1.6505,-1.649,-1.6475,-1.6477,-1.6456,-1.6448,-1.645,-1.6426,-1.6425,-1.6417,-1.6408,-1.6402,-1.6436,-1.6417,-1.6435,-1.646,-1.6466,-1.6471,-1.6475,-1.6487,-1.6491,-1.6437,-1.6437,-1.6437,0,-1.6545,-1.6543,-1.652,-1.6522,-1.6517,-1.6489,-1.6496,-1.6488,-1.6472,-1.6469,-1.6457,-1.6448,-1.6436,-1.6441,-1.645,-1.6446,-1.6447,-1.6436,-1.6472,-1.6476,-1.6479,-1.649,-1.6495,-1.6439,-1.6439,-1.6439,-1.6438,0,-1.6576,-1.6575,-1.6582,-1.6568,-1.6564,-1.6569,-1.6547,-1.6545,-1.653,-1.6517,-1.6519,-1.6504,-1.6496,-1.6496,-1.6481,-1.65,-1.6493,-1.6477,-1.6455,-1.6487,-1.6497,-1.6501,-1.6442,-1.6441,-1.6441,-1.644,0,0,-1.6633,-1.6607,-1.661,-1.6604,-1.6586,-1.6584,-1.6588,-1.658,-1.658,-1.657,-1.6572,-1.6567,-1.6553,-1.6546,-1.653,-1.6536,-1.6563,-1.6519,-1.6518,-1.6528,-1.6583,-1.6596,-1.6601,-1.6552,-1.6552,-1.6553,-1.6585,0,-1.6665,-1.6669,-1.6649,-1.6659,-1.6658,-1.6632,-1.6635,-1.6625,-1.6612,-1.661,-1.6596,-1.6593,-1.6573,-1.657,-1.6574,-1.6559,-1.6574,-1.6557,-1.6553,-1.6554,-1.6557,-1.6606,-1.6619,-1.665,-1.6588,-1.6589,-1.659,0,-1.6702,-1.6695,-1.6704,-1.6687,-1.6686,-1.6689,-1.668,-1.6678,-1.6666,-1.6656,-1.665,-1.6632,-1.6635,-1.6614,-1.6617,-1.6606,-1.6604,-1.6596,-1.6597,-1.6596,-1.6573,-1.6606,-1.6659,-1.6663,-1.6595,-1.6595,-1.6595,0,-1.6743,-1.6736,-1.6741,-1.6736,-1.6715,-1.6718,-1.671,-1.6696,-1.6693,-1.6686,-1.6683,-1.6676,-1.6673,-1.6668,-1.6648,-1.6635,-1.6654,-1.6632,-1.6646,-1.6647,-1.6651,-1.6651,-1.6704,-1.665,-1.665,-1.665,-1.665,0,-1.678,-1.6787,-1.6759,-1.6762,-1.6769,-1.6747,-1.6755,-1.6744,-1.6732,-1.6733,-1.671,-1.6711,-1.6686,-1.6684,-1.6669,-1.6674,-1.6673,-1.6665,-1.6661,-1.6667,-1.6668,-1.6665,-1.6662,-1.6651,-1.6651,-1.6651,-1.665,0,-1.6827,-1.6808,-1.6812,-1.6792,-1.6788,-1.6794,-1.6777,-1.678,-1.6766,-1.6767,-1.6766,-1.6745,-1.6742,-1.6722,-1.6715,-1.6705,-1.6716,-1.6707,-1.672,-1.6717,-1.6732,-1.6731,-1.6785,-1.6791,-1.6734,-1.6734,-1.6735,0,-1.6852,-1.6857,-1.6838,-1.6837,-1.6829,-1.6828,-1.6825,-1.6803,-1.68,-1.6787,-1.6791,-1.6787,-1.6782,-1.6778,-1.6762,-1.6756,-1.6748,-1.6767,-1.6747,-1.6753,-1.6748,-1.6748,-1.6749,-1.6771,-1.6772,-1.6773,-1.6773,0,-1.6898,-1.6889,-1.6885,-1.6878,-1.6875,-1.6869,-1.6861,-1.6861,-1.6837,-1.6836,-1.6833,-1.6829,-1.6822,-1.6817,-1.6809,-1.68,-1.6783,-1.678,-1.6783,-1.6789,-1.6796,-1.6793,-1.6731,-1.6779,-1.6778,-1.6778,-1.6777,-1.6777,-1.6934,-1.6938,-1.6925,-1.6922,-1.6914,-1.6907,-1.6909,-1.6896,-1.6893,-1.6885,-1.6873,-1.6872,-1.686,-1.6847,-1.684,-1.6839,-1.6829,-1.6833,-1.6834,-1.6836,-1.6839,-1.6797,-1.6837,-1.6837,-1.6837,-1.6837,-1.6837,0,-1.698,-1.697,-1.6968,-1.6958,-1.6955,-1.694,-1.693,-1.6929,-1.6929,-1.6919,-1.6915,-1.6912,-1.6908,-1.6892,-1.6887,-1.6889,-1.6881,-1.6888,-1.6888,-1.6886,-1.6848,-1.6846,-1.6895,-1.6895,-1.6895,-1.6895,-1.6895,-1.6895,-1.7003,-1.7008,-1.6997,-1.6998,-1.6989,-1.6988,-1.6984,-1.6978,-1.6971,-1.6968,-1.6965,-1.6955,-1.6943,-1.6936,-1.6932,-1.6928,-1.6927,-1.6937,-1.693,-1.6894,-1.6889,-1.6883,-1.6881,-1.6937,-1.6937,-1.6968,-1.6968,-1.6968]},{"header":{"parameterUnit":"m.s-1","parameterCategory":1,"la1":30.2991,"la2":30.254,"lo1":-89.0895,"lo2":-89.0444,"dy":0.0017,"dx":0.0017,"nx":28,"ny":28,"refTime":"2023-08-24T09:00:00:Z","depth":0,"parameterNumber":3,"parameterNumberName":"V-component_of_WINDS"},"data":[0,0,0,0,0,0,0,0,0,0,0,0,0,0,0,0,0,0,0,0,0,0,0,0,0,0,0,0,0,0,0,0,0,0,0,0,0,0,0,0,0,0,0,0,0,0,0,0,0,0,0,0,0,0,0,0,0,0,3.7649,3.7649,0,3.7624,3.7623,3.7623,3.76,3.7599,3.7599,3.7599,3.7569,3.7569,3.7568,0,0,0,0,0,0,0,0,0,0,0,0,0,3.7676,3.7676,3.7649,3.7649,3.7649,3.7624,3.7623,3.7623,3.76,3.7599,3.7599,3.7599,3.757,3.7569,3.7568,0,0,0,0,0,0,0,0,0,0,0,0,0,3.7659,3.7676,3.7649,3.7634,3.7633,3.7624,3.7623,3.7623,3.76,3.7599,3.7599,3.7599,3.757,3.7569,3.7568,3.7572,0,0,3.7566,3.7566,0,0,0,0,0,0,0,0,3.766,3.7658,3.7637,3.7635,3.7633,3.7614,3.7622,3.7606,3.76,3.7612,3.7599,3.7598,3.7585,3.7583,3.7579,3.757,3.7569,3.7566,3.7565,3.7565,3.7565,0,0,0,0,0,0,0,3.7661,3.7659,3.7639,3.7636,3.7634,3.7628,3.7625,3.7619,3.7601,3.7611,3.7609,3.7607,3.7584,3.7579,3.7578,3.7569,3.7566,3.7565,3.7565,3.7564,3.7562,3.7562,0,0,0,0,0,0,3.7665,3.766,3.764,3.7638,3.7646,3.7628,3.7624,3.7621,3.7601,3.7597,3.7607,3.7606,3.7581,3.7579,3.7577,3.7579,3.7565,3.7564,3.7564,3.7561,3.7562,3.7562,0,0,0,0,0,0,3.7666,3.7663,3.7641,3.7649,3.7645,3.7628,3.7624,3.7621,3.7616,3.7598,3.7594,3.7606,3.758,3.7578,3.7573,3.7578,3.7564,3.7563,3.7561,3.7562,3.7562,3.7584,0,0,0,0,0,0,3.7666,3.7664,3.7665,3.7649,3.7645,3.7639,3.7624,3.762,3.7615,3.7613,3.7596,3.7593,3.758,3.7575,3.7572,3.7576,3.7563,3.756,3.7561,3.7562,3.7583,3.7585,3.7588,0,0,0,0,0,3.7668,3.7672,3.7665,3.7663,3.7647,3.7639,3.7637,3.7623,3.7616,3.7617,3.7605,3.7593,3.7578,3.7574,3.7572,3.7575,3.756,3.7561,3.7562,3.7582,3.7585,3.7588,0,0,0,0,0,0,3.7688,3.7669,3.7662,3.7661,3.7652,3.7635,3.7636,3.7626,3.7618,3.7616,3.7598,3.7595,3.7592,3.7583,3.758,3.7578,3.7567,3.7568,3.7583,3.7586,3.7589,3.759,3.7562,0,0,0,0,0,3.7693,3.7689,3.7672,3.7673,3.7669,3.7654,3.765,3.764,3.7629,3.7625,3.7613,3.7602,3.7595,3.759,3.7582,3.7582,3.7578,3.7583,3.7586,3.7588,3.7588,3.7587,3.7589,3.7565,3.7565,3.7565,0,0,3.7702,3.7691,3.769,3.7677,3.7669,3.7665,3.765,3.7646,3.7643,3.7624,3.7619,3.761,3.7597,3.7595,3.7593,3.7587,3.7594,3.7589,3.7591,3.759,3.7588,3.7591,3.7593,3.7566,3.7566,3.7566,0,0,3.7716,3.7708,3.7708,3.77,3.7688,3.7678,3.7678,3.7663,3.7656,3.7652,3.7637,3.7633,3.762,3.7612,3.7606,3.7618,3.7607,3.7616,3.7628,3.7627,3.7629,3.7631,3.7635,3.7636,3.7617,3.7617,3.7617,0,3.7728,3.7722,3.7709,3.7706,3.7701,3.7685,3.7684,3.7677,3.7663,3.766,3.7654,3.7639,3.7628,3.7624,3.7627,3.7623,3.7622,3.7617,3.763,3.7632,3.7633,3.7636,3.7638,3.7618,3.7618,3.7618,3.7617,0,3.7738,3.7734,3.7736,3.7723,3.7719,3.7717,3.7703,3.7699,3.769,3.768,3.7676,3.7663,3.7653,3.7651,3.7642,3.7646,3.7642,3.7634,3.7623,3.7636,3.764,3.7641,3.7619,3.7619,3.7619,3.7618,0,0,3.7764,3.7745,3.7746,3.774,3.7726,3.7722,3.772,3.7711,3.7708,3.7699,3.7696,3.7687,3.7679,3.7672,3.7662,3.7662,3.7672,3.7653,3.7652,3.7656,3.7675,3.7681,3.7683,3.7665,3.7665,3.7665,3.7676,0,3.7775,3.7771,3.7759,3.7758,3.7754,3.7739,3.7737,3.7728,3.7719,3.7714,3.7703,3.7697,3.7687,3.7683,3.7682,3.7671,3.7675,3.767,3.7661,3.7661,3.7664,3.7685,3.7691,3.7702,3.7677,3.7677,3.7677,0,3.7788,3.7781,3.778,3.7767,3.7765,3.7763,3.7754,3.775,3.7739,3.7732,3.7726,3.7714,3.771,3.7701,3.7695,3.7692,3.7688,3.7682,3.7682,3.768,3.7669,3.7683,3.7705,3.7706,3.7679,3.7679,3.7679,0,3.7806,3.7797,3.7795,3.7791,3.7775,3.7774,3.7768,3.7757,3.7753,3.7744,3.7741,3.7733,3.7728,3.7721,3.7707,3.7702,3.7703,3.7692,3.7697,3.7697,3.7697,3.7697,3.7718,3.7695,3.7695,3.7695,3.7695,0,3.782,3.782,3.7803,3.7802,3.7801,3.7787,3.7787,3.7779,3.7769,3.7766,3.7752,3.7749,3.7732,3.7727,3.7716,3.7713,3.7711,3.7705,3.7702,3.7705,3.7706,3.7702,3.77,3.7695,3.7695,3.7695,3.7695,0,3.784,3.7829,3.7826,3.7812,3.7809,3.7809,3.7796,3.7794,3.7785,3.7781,3.7779,3.7764,3.7757,3.7744,3.7733,3.7725,3.7724,3.7719,3.7728,3.7726,3.7731,3.7731,3.775,3.7751,3.7728,3.7728,3.7729,0,3.7849,3.7849,3.7836,3.7833,3.7827,3.7823,3.7818,3.7805,3.7801,3.7789,3.7789,3.7781,3.7774,3.7764,3.7751,3.7743,3.7737,3.7745,3.7736,3.774,3.7737,3.7737,3.7737,3.7746,3.7747,3.7747,3.7747,0,3.7867,3.7862,3.7856,3.7849,3.7845,3.7839,3.7831,3.783,3.7814,3.781,3.7804,3.7799,3.7788,3.7781,3.7771,3.7763,3.7752,3.775,3.7751,3.7754,3.7759,3.7756,3.7733,3.775,3.7749,3.7749,3.7749,3.7749,3.7881,3.788,3.7871,3.7866,3.7859,3.7853,3.7851,3.7842,3.7836,3.7827,3.782,3.7814,3.7803,3.7789,3.7782,3.7777,3.7772,3.7772,3.7773,3.7773,3.7774,3.7761,3.7775,3.7775,3.7775,3.7775,3.7775,0,3.7898,3.7892,3.7887,3.7878,3.7874,3.7866,3.7857,3.7854,3.7849,3.7841,3.7835,3.7828,3.782,3.7808,3.78,3.7798,3.7793,3.7796,3.7795,3.7794,3.7779,3.778,3.78,3.78,3.78,3.78,3.78,3.78,3.7906,3.7904,3.7898,3.7893,3.7886,3.7881,3.7877,3.7871,3.7864,3.7857,3.7851,3.7844,3.7834,3.7825,3.7817,3.7814,3.7811,3.7816,3.7811,3.7797,3.7795,3.7793,3.7793,3.7815,3.7815,3.7825,3.7825,3.7825]}]]